{"data":{"norad_id":68700,"epoch":"2026-09-20T04:07:44.654304Z","epoch_age_seconds":72141,"freshness":"FRESH","line1":"1 68700U 26081B   26263.17204461  .00012042  00000+0  36693-3 0  9990","line2":"2 68700  53.1595 207.5734 0001505  88.7035 271.4140 15.34403765 24565","mean_motion":15.34403765,"eccentricity":0.0001505,"inclination_deg":53.1595,"raan_deg":207.5734,"arg_perigee_deg":88.7035,"mean_anomaly_deg":271.414,"bstar":0.00036693,"rev_number":2456,"period_min":93.847527805043,"perigee_km":461.66250508455,"apogee_km":463.72159462855,"semimajor_km":6840.8290498565,"source":"CELESTRAK","updated_at":"2026-09-20T09:00:43.956276Z"}}